This is the latest recevied weather packets stored in our database for station/object E20YUC-1. If no packets are shown the sender has not sent any weather packets the latest 10 day(s).
| Time | Temp. | Humidity | Pressure | Rain* | Wind** | Luminosity | Snow |
|---|---|---|---|---|---|---|---|
| 1777804622 | 36.11° C | 52% | 992.9 hPa | 0 mm | 2.24 m/s, 22° | - | - |
| 1777804324 | 36.11° C | 51% | 992.8 hPa | 0 mm | 0.89 m/s, 22° | - | - |
| 1777803722 | 36.67° C | 50% | 992.7 hPa | 0 mm | 0 m/s | - | - |
| 1777803122 | 36.67° C | 50% | 992.7 hPa | 0 mm | 0.89 m/s, 22° | - | - |
| 1777802824 | 36.67° C | 50% | 992.7 hPa | 0 mm | 0 m/s | - | - |
| 1777802222 | 36.67° C | 49% | 992.4 hPa | 0 mm | 0 m/s | - | - |
| 1777801922 | 36.67° C | 49% | 992.4 hPa | 0 mm | 2.68 m/s, 22° | - | - |
| 1777801622 | 37.22° C | 49% | 992.4 hPa | 0 mm | 3.13 m/s, 0° | - | - |
| 1777801324 | 36.67° C | 49% | 992.3 hPa | 0 mm | 0 m/s | - | - |
| 1777801022 | 37.22° C | 49% | 992.4 hPa | 0 mm | 0.89 m/s, 22° | - | - |
| 1777800422 | 37.22° C | 51% | 992.3 hPa | 0 mm | 0.89 m/s, 22° | - | - |
| 1777800122 | 37.22° C | 51% | 992.3 hPa | 0 mm | 2.68 m/s, 0° | - | - |
| 1777799823 | 37.22° C | 51% | 992.3 hPa | 0 mm | 2.24 m/s, 22° | - | - |
| 1777799521 | 37.22° C | 51% | 992.2 hPa | 0 mm | 1.34 m/s, 22° | - | - |
| 1777798921 | 36.67° C | 51% | 992.3 hPa | 0 mm | 0 m/s | - | - |
| 1777798621 | 36.67° C | 51% | 992.3 hPa | 0 mm | 2.68 m/s, 22° | - | - |
| 1777798323 | 36.67° C | 50% | 992.4 hPa | 0 mm | 0 m/s | - | - |
| 1777797721 | 36.67° C | 50% | 992.5 hPa | 0 mm | 0.45 m/s, 22° | - | - |
| 1777797121 | 36.67° C | 49% | 992.6 hPa | 0 mm | 2.24 m/s, 22° | - | - |
| 1777796823 | 37.22° C | 49% | 992.7 hPa | 0 mm | 4.02 m/s, 0° | - | - |
| 1777796521 | 37.22° C | 49% | 992.7 hPa | 0 mm | 0 m/s | - | - |
| 1777796221 | 37.22° C | 49% | 992.8 hPa | 0 mm | 4.02 m/s, 22° | - | - |
| 1777795921 | 37.22° C | 49% | 992.9 hPa | 0 mm | 2.68 m/s, 90° | - | - |
| 1777795621 | 36.67° C | 50% | 992.8 hPa | 0 mm | 0.89 m/s, 180° | - | - |
| 1777795323 | 37.22° C | 50% | 993 hPa | 0 mm | 0 m/s | - | - |
* Rain latest hour (hover to see other rain measurements)
** Current wind speed in m/s (hover to see current wind gust speed)